Location: Del Amo
(33.8464°N, 118.2104°W)
Time: 18:15:41
(UTC+00:00)

Vanguard 1 Rocket - Pass Details

Date: 19 September 2024
Orbit: 650 x 4218 km, 34.3° (Epoch: 04 October)

Event Time Altitude Azimuth Distance (km) Brightness Sun altitude
Rises 07:41:57 0° 195° (SSW) 3,898 - -54.9°
Reaches altitude 10° 07:44:51 10° 180° (S) 3,298 - -54.9°
Maximum altitude 07:51:25 24° 129° (SE) 3,166 - -54.9°
Exits shadow 07:58:34 15° 91° (E) 4,596 10.9 -54.8°
Drops below altitude 10° 08:01:42 10° 83° (E) 5,392 11.4 -54.7°
Sets 08:08:18 0° 73° (ENE) 7,087 12.2 -54.5°
